"Pseudo-MPEC" for 2016-035B = NORAD 41582 = Briz-M No. 99570

Created 2017 Oct 2 14:34:28 UT using Find_Orb

Astrometry:
2016-035B    tC2016 07 06.34658 23 49 20.07 -06 35 00.0         x13.7 R D0549Y00
2016-035B    tC2016 07 06.34821 23 49 53.19 -06 28 17.7         x13.5 R D0549Y00
2016-035B    tC2016 07 06.34957 23 50 20.95 -06 22 40.5         x13.5 R D0549Y00
2016-035B    tC2016 08 25.09069 00 32 44.62 +00 32 53.5         x13.9 R D0550Y00
2016-035B    tC2016 08 25.09175 00 33 01.26 +00 36 29.9         x14.2 R D0550Y00
2016-035B    tC2016 08 25.09278 00 33 17.71 +00 40 02.5         x14.3 R D0550Y00
2016-035B    tC2016 08 25.11034 00 37 37.21 +01 37 43.8         x13.6 R D0550Y00
2016-035B    tC2016 08 25.11137 00 37 51.87 +01 41 03.3         x13.5 R D0550Y00
2016-035B    tC2016 08 25.11248 00 38 07.40 +01 44 35.3         x13.0 R D0550Y00
2016-035B    tC2016 08 26.24176 01 35 53.27 +12 42 57.1         x13.8 R D0550Y00
2016-035B    tC2016 08 26.24283 01 36 04.20 +12 45 47.7         x13.6 R D0550Y00
2016-035B    tC2016 08 26.24400 01 36 16.15 +12 48 53.7         x13.2 R D0550Y00
2016-035B    tC2016 08 27.26876 02 21 04.84 +19 38 21.6         x13.6 R D0550Y00
2016-035B    tC2016 08 27.26975 02 21 20.76 +19 41 52.8         x13.5 R D0550Y00
2016-035B    tC2016 08 27.27085 02 21 38.71 +19 45 50.8         x14.4 R D0550Y00
2016-035B    tC2016 08 27.30825 02 32 46.98 +22 08 47.3         x13.8 R D0550Y00
2016-035B    tC2016 08 27.30963 02 33 14.16 +22 14 24.8         x14.5 R D0550Y00
2016-035B    tC2016 08 27.31073 02 33 36.04 +22 18 55.7         x13.7 R D0550Y00
2016-035B    tC2016 10 07.00340 02 12 17.47 +17 35 38.4         x13.4 R D0551Y00
2016-035B    tC2016 10 07.00484 02 12 40.41 +17 39 47.4         x13.8 R D0551Y00
2016-035B    tC2016 10 07.00592 02 12 57.64 +17 42 54.9         x13.6 R D0551Y00
2016-035B    tC2016 10 07.01288 02 14 49.19 +18 03 12.4         x13.5 R D0551Y00
2016-035B    tC2016 10 07.01391 02 15 05.88 +18 06 15.1         x13.7 R D0551Y00
2016-035B    tC2016 10 07.01493 02 15 22.21 +18 09 14.2         x13.7 R D0551Y00
2016-035B    tC2016 10 07.03200 02 19 58.91 +19 00 09.7         x13.6 R D0551Y00
2016-035B    tC2016 10 07.03315 02 20 17.61 +19 03 38.3         x13.3 R D0551Y00
2016-035B    tC2016 10 07.03419 02 20 34.62 +19 06 47.5         x13.7 R D0551Y00
2016-035B    tC2016 10 11.11390 00 10 16.47 +04 10 00.3         x12.6 R D0551Y00
2016-035B    tC2016 10 11.11491 00 10 34.46 +04 13 36.9         x12.8 R D0551Y00
2016-035B    tC2016 10 11.11616 00 10 56.84 +04 18 06.7         x13.4 R D0551Y00
2016-035B    tC2016 10 13.17253 01 36 59.08 +17 00 45.4         x12.4 R D0551Y00
2016-035B    tC2016 10 13.17400 01 37 14.43 +17 04 10.8         x12.7 R D0551Y00
2016-035B    tC2016 10 13.17551 01 37 30.20 +17 07 41.9         x12.9 R D0551Y00
2016-035B    tC2017 08 30.15519 01 15 06.38 +29 28 35.6          13.6 R D0557Y00
2016-035B    tC2017 08 30.15618 01 15 35.34 +29 30 53.1          13.8 R D0557Y00
2016-035B    tC2017 08 30.15720 01 16 04.51 +29 33 11.0          13.9 R D0557Y00
2016-035B    tC2017 08 30.24662 01 50 10.02 +31 51 42.0          14.3 R D0557Y00
2016-035B    tC2017 08 30.24761 01 50 28.85 +31 52 41.8          14.3 R D0557Y00
2016-035B    tC2017 08 30.24862 01 50 47.98 +31 53 42.1          14.1 R D0557Y00
2016-035B    tC2017 09 07.25552 01 57 37.32 +32 26 12.4          13.6 R D0557Y00
2016-035B    tC2017 09 07.25650 01 57 54.83 +32 26 52.8          13.7 R D0557Y00
2016-035B    tC2017 09 07.25748 01 58 12.49 +32 27 31.7          13.7 R D0557Y00
2016-035B    tC2017 09 16.28281 02 56 43.96 +33 46 26.9          13.9 R D0557Y00
2016-035B    tC2017 09 16.28383 02 56 58.70 +33 46 33.8          13.8 R D0557Y00
2016-035B    tC2017 09 16.28489 02 57 14.00 +33 46 40.5          13.9 R D0557Y00
2016-035B    tC2017 09 23.16630 01 38 01.51 +32 09 01.4          12.9 R      Y00
2016-035B    tC2017 09 23.16721 01 38 22.64 +32 10 00.4          12.9 R      Y00
2016-035B    tC2017 09 23.16821 01 38 45.47 +32 11 02.6          13.0 R      Y00
2016-035B    tC2017 10 02.21931 02 50 21.35 +33 47 57.5          13.1 R      Y00
2016-035B    tC2017 10 02.22030 02 50 35.80 +33 48 04.3          13.2 R      Y00
2016-035B    tC2017 10 02.22129 02 50 50.41 +33 48 11.5          13.3 R      Y00
2016-035B    tC2017 10 02.23088 02 53 10.77 +33 49 00.2          13.4 R      Y00
2016-035B    tC2017 10 02.23187 02 53 25.16 +33 49 02.9          13.4 R      Y00
2016-035B    tC2017 10 02.23286 02 53 39.52 +33 49 05.7          13.6 R      Y00

Station data:
(Y00) SONEAR Observatory, Oliveira  (S20.715080 W44.784960)  Brazil.
   Observers C. Jacques, E. Pimentel, J. Barros. Measurer C. Jacques. 0.28-m
   f/2.2 astrograph + CCD.

Orbital elements:  2016-035B = NORAD 41582 = Briz-M No. 99570
   Perigee 2017 Aug 31.761135 +/- 2.13e-5 TT = 18:16:02 (JD 2457997.261135)
Epoch 2017 Sep  1.0 TT = JDT 2457997.5                        Gray
M  96.88668 +/- 0.008               (J2000 equator)
n 405.61287114 +/- 0.000143         Peri.  262.87028 +/- 0.0012
a 39011.7729 +/- 0.00918            Node   322.73724 +/- 0.0013
e   0.7881872 +/- 1.91e-5           Incl.   29.69568 +/- 0.00044
P1278.04m/0.888d           H 29.2   G  0.15   U  6.8  
q 8263.19012 +/- 0.747    Q 69760.3557 +/- 0.737
21 of 54 observations 2017 Aug. 30-Oct. 2; mean residual 5".722
Residuals in arcseconds: 
160706 Y00(4183+ 2166+)   161007 Y00( 969+  472+)   170830 Y00 5.43- 1.67-    
160706 Y00(4146+ 2146+)   161007 Y00( 971+  473+)   170830 Y00 3.88- 1.24-    
160706 Y00(4121+ 2134+)   161007 Y00( 973+  474+)   170830 Y00 2.57- .920-    
160825 Y00(1822+ 1093+)   161007 Y00( 989+  480+)   170907 Y00 9.30+ 1.17+    
160825 Y00(1819+ 1090+)   161007 Y00( 994+  483+)   170907 Y00 6.94+ 1.36+    
160825 Y00(1821+ 1091+)   161007 Y00( 995+  483+)   170907 Y00 7.01+ .538+    
160825 Y00(1738+ 1027+)   161007 Y00(1036+  499+)   170916 Y00 5.96+ .037-    
160825 Y00(1735+ 1024+)   161007 Y00(1037+  499+)   170916 Y00 5.60+ .054+    
160825 Y00(1730+ 1020+)   161007 Y00(1039+  500+)   170916 Y00 4.95+ .091+    
160826 Y00(1434+  812+)   161011 Y00(1388+  721+)   170923 Y00 12.7+ 1.63+    
160826 Y00(1435+  813+)   161011 Y00(1379+  716+)   170923 Y00 13.9+ 3.22+    
160826 Y00(1436+  814+)   161011 Y00(1372+  712+)   170923 Y00 11.6+ 3.02+    
160827 Y00(1907+ 1070+)   161013 Y00( 835+  460+)   171002 Y00 7.08- .488+    
160827 Y00(1911+ 1072+)   161013 Y00( 836+  460+)   171002 Y00 8.10- .096-    
160827 Y00(1917+ 1077+)   161013 Y00( 836+  461+)   171002 Y00 7.02- .097+    
160827 Y00(2193+ 1272+)   170830 Y00 10.6- 3.26-    171002 Y00 6.76- .291+    
160827 Y00(2204+ 1280+)   170830 Y00 5.01- 1.11-    171002 Y00 7.62- .027-    
160827 Y00(2214+ 1287+)   170830 Y00 5.51- 1.39-    171002 Y00 8.81- .126+    

Ephemerides (geocentric):
Date (UTC) HH   RA              Dec         delta   r     elong  mag " sig PA
---- -- -- --  ------------   ------------  ------ ------ -----  --- ---- ---
2017 10 02 00  01 13 23.962   +26 06 47.25    50843 1.0012 155.3 13.0  1.1  46
2017 10 02 01  01 37 13.691   +27 21 43.80    56610 1.0012 151.5 13.3  .50 133
2017 10 02 02  01 57 25.394   +28 12 18.68    61176 1.0012 148.1 13.6  .96  98
2017 10 02 03  02 15 20.434   +28 47 21.09    64689 1.0012 144.9 13.8  1.2  91
2017 10 02 04  02 31 47.952   +29 11 27.47    67246 1.0012 141.9 14.0  1.3  89
2017 10 02 05  02 47 21.149   +29 27 10.45    68909 1.0012 139.0 14.1  1.2  86
2017 10 02 06  03 02 24.994   +29 35 52.99    69714 1.0012 136.1 14.2  .96  83
2017 10 02 07  03 17 20.488   +29 38 12.50    69679 1.0011 133.3 14.3  .65  74
2017 10 02 08  03 32 27.537   +29 34 10.36    68804 1.0011 130.3 14.4  .31  32
2017 10 02 09  03 48 07.473   +29 23 11.77    67068 1.0011 127.3 14.4  .59 132
2017 10 02 10  04 04 46.012   +29 03 56.04    64434 1.0010 124.0 14.4  1.4 115
2017 10 02 11  04 22 57.776   +28 33 51.66    60837 1.0010 120.3 14.4  2.5 111
2017 10 02 12  04 43 34.561   +27 48 19.74    56178 1.0009 116.0 14.3  4.1 110
2017 10 02 13  05 08 03.041   +26 38 17.57    50303 1.0009 110.9 14.2  6.6 110
2017 10 02 14  05 39 09.694   +24 43 57.76    42970 1.0008 104.1 14.1 11.0 112
2017 10 02 15  06 23 25.692   +21 12 16.94    33772 1.0007  93.9 14.0 20.5 114
2017 10 02 16  07 43 02.628   +12 34 35.89    21976 1.0007  74.2 13.9 52.1 119
2017 10 02 17  13 18 01.813   -26 22 47.85     8561 1.0006  24.9 17??  332 104
2017 10 02 18  22 08 50.015   +07 32 06.70    18975 1.0008 143.5 11.2 53.5  60
2017 10 02 19  23 44 19.130   +19 01 48.79    31464 1.0009 160.4 11.8 13.5  62
2017 10 02 20  00 32 39.316   +23 21 52.29    41151 1.0009 160.4 12.4  4.7  62
2017 10 02 21  01 05 27.668   +25 39 34.86    48846 1.0010 157.0 12.8  1.5  52
2017 10 02 22  01 30 48.507   +27 04 18.93    55013 1.0010 153.3 13.2  .46 151
2017 10 02 23  01 51 55.462   +28 00 35.69    59922 1.0010 149.8 13.5  .93 100
2017 10 03 00  02 10 25.651   +28 39 19.41    63740 1.0010 146.5 13.7  1.2  92
2017 10 03 01  02 27 15.589   +29 06 02.53    66577 1.0010 143.5 13.9  1.3  89
2017 10 03 02  02 43 02.237   +29 23 46.49    68503 1.0009 140.6 14.1  1.3  87
2017 10 03 03  02 58 12.497   +29 34 11.31    69564 1.0009 137.7 14.2  1.1  84
2017 10 03 04  03 13 08.227   +29 38 06.25    69781 1.0009 134.9 14.3  .82  78
2017 10 03 05  03 28 09.393   +29 35 42.80    69159 1.0009 132.0 14.3  .45  58
2017 10 03 06  03 43 36.614   +29 26 37.28    67685 1.0008 129.0 14.4  .39 153
2017 10 03 07  03 59 53.894   +29 09 44.20    65327 1.0008 125.8 14.4  1.0 120
2017 10 03 08  04 17 32.513   +28 42 56.97    62028 1.0007 122.2 14.4  2.1 112
2017 10 03 09  04 37 17.797   +28 02 23.65    57700 1.0007 118.2 14.3  3.5 110
2017 10 03 10  05 00 22.966   +27 00 43.43    52211 1.0006 113.4 14.2  5.7 110
2017 10 03 11  05 29 02.355   +25 22 32.31    45350 1.0006 107.2 14.1  9.3 111
2017 10 03 12  06 08 09.981   +22 29 29.72    36769 1.0005  98.3 14.0 16.5 114
2017 10 03 13  07 12 13.762   +16 11 18.87    25855 1.0004  82.9 13.9 36.8 117
2017 10 03 14  10 10 14.532   -07 44 32.34    11942 1.0004  36.9 16??  174 119
2017 10 03 15  21 09 19.093   -00 45 21.05    14597 1.0005 127.6 11.1 97.7  59
2017 10 03 16  23 23 56.604   +16 55 23.38    28056 1.0006 157.7 11.6 18.9  62
2017 10 03 17  00 20 39.714   +22 25 43.33    38482 1.0007 161.2 12.2  6.3  63
2017 10 03 18  00 56 53.541   +25 08 17.25    46715 1.0007 158.5 12.7  2.1  56
2017 10 03 19  01 24 01.859   +26 44 46.12    53307 1.0007 154.9 13.1  .48   0
2017 10 03 20  01 46 12.405   +27 47 36.88    58572 1.0007 151.4 13.4  .87 102
2017 10 03 21  02 05 22.612   +28 30 27.96    62705 1.0007 148.2 13.6  1.3  92
2017 10 03 22  02 22 38.145   +29 00 01.56    65827 1.0007 145.1 13.8  1.4  89
2017 10 03 23  02 38 40.537   +29 19 53.69    68022 1.0007 142.2 14.0  1.4  87
2017 10 04 00  02 53 59.064   +29 32 03.90    69340 1.0007 139.4 14.1  1.3  85
2017 10 04 01  03 08 56.712   +29 37 34.36    69809 1.0007 136.5 14.2  1.0  81